Skip Page Navigation
NASA JPL Caltech
NASA Logo - Jet Propulsion Laboratory + View the NASA Portal
+ Center for Near-Earth Object Studies
JPL Home Earth Solar System Stars & Galaxies Technology
JPL Solar System Dynamics
BODIES ORBITS EPHEMERIDES TOOLS PHYSICAL DATA DISCOVERY FAQ SITE MAP
IMPORTANT: The SSD Announcement email list is now available. Major changes are coming in the near future, including possible hostname and/or URL changes. To be notified of such changes, subscribe to this email list.

Please visit this page for more details.


JPL Small-Body Database Browser
Search: [ help ]  
48083 (2001 FO36)
Classification: Main-belt Asteroid          SPK-ID: 2048083
Ephemeris | Orbit Diagram | Orbital Elements | Mission Design | Physical Parameters | Discovery Circumstances ]

[ show orbit diagram ]
Orbital Elements at Epoch 2458600.5 (2019-Apr-27.0) TDB
Reference: JPL 19 (heliocentric ecliptic J2000)
 Element Value Uncertainty (1-sigma)   Units 
e .1276371793519401 7.3481e-08  
a 2.428742411136428 1.2583e-08 au
q 2.118744580406545 1.8311e-07 au
i 1.915804095850113 5.2355e-06 deg
node 213.8170680490852 0.00014954 deg
peri 331.3880468261866 0.00015056 deg
M 275.2590205293886 1.8953e-05 deg
tp 2458925.933000532383
(2020-Mar-17.43300053)
7.3728e-05 TDB
period 1382.517418650889
3.79
1.0744e-05
2.942e-08
d
yr
n .2603945492066936 2.0236e-09 deg/d
Q 2.738740241866311 1.4189e-08 au
  Orbit Determination Parameters
   # obs. used (total)      467  
   data-arc span      10276 days (28.13 yr)  
   first obs. used      1991-09-14  
   last obs. used      2019-11-02  
   planetary ephem.      DE431  
   SB-pert. ephem.      SB431-N16  
   condition code      0  
   norm. resid. RMS      .58332  
   source      ORB  
   producer      Otto Matic  
   solution date      2019-Dec-04 03:32:17  

Additional Information
 Earth MOID = 1.12098 au 
 Jupiter MOID = 2.22274 au 
 T_jup = 3.497 
[ show covariance matrix ]

Ephemeris | Orbit Diagram | Orbital Elements | Mission Design | Physical Parameters | Discovery Circumstances ]

Physical Parameter Table
Parameter Symbol Value Units Sigma Reference Notes
absolute magnitude H 16.1   n/a MPO417150  

48083 (2001 FO36)          Discovered 2001-Mar-18 by LINEAR at Socorro
Reference: 20020921/Numbers.arcLast Updated: 2004-04-19

Alternate Designations
 2001 FO36 = 1995 SE26 = 1999 VU207 
Ephemeris | Orbit Diagram | Orbital Elements | Mission Design | Physical Parameters | Discovery Circumstances ]
ABOUT SSD CREDITS/AWARDS PRIVACY/COPYRIGHT GLOSSARY LINKS
FirstGov 2020-Jan-19 21:49 UT
(server date/time)  
NASA Home Page
Site Manager:   Ryan S. Park
Webmaster  Alan B. Chamberlin